TimeMDT,TemperatureF,Dew PointF,Humidity,Sea Level PressureIn,VisibilityMPH,Wind Direction,Wind SpeedMPH,Gust SpeedMPH,PrecipitationIn,Events,Conditions,WindDirDegrees,DateUTC
12:53 AM,63.0,48.9,60,29.95,10.0,South,8.1,-,N/A,,Clear,170,2012-09-01 06:53:00
1:53 AM,64.0,48.0,56,29.94,10.0,SSE,8.1,-,N/A,,Clear,150,2012-09-01 07:53:00
2:53 AM,61.0,46.9,60,29.96,10.0,SSE,4.6,-,N/A,,Clear,160,2012-09-01 08:53:00
3:53 AM,59.0,48.0,67,29.97,10.0,SE,6.9,-,N/A,,Clear,130,2012-09-01 09:53:00
4:53 AM,57.9,46.9,67,29.98,10.0,South,5.8,-,N/A,,Clear,170,2012-09-01 10:53:00
5:53 AM,57.9,46.9,67,29.99,10.0,SE,5.8,-,N/A,,Clear,140,2012-09-01 11:53:00
6:53 AM,59.0,46.9,64,30.01,10.0,SSE,5.8,-,N/A,,Clear,150,2012-09-01 12:53:00
7:53 AM,61.0,48.0,62,30.03,10.0,South,3.5,-,N/A,,Overcast,190,2012-09-01 13:53:00
8:53 AM,64.0,50.0,60,30.04,10.0,ESE,3.5,-,0.00,Rain,Light Rain,110,2012-09-01 14:53:00
9:53 AM,68.0,50.0,52,30.03,8.0,ESE,6.9,-,0.00,Rain,Light Rain,110,2012-09-01 15:53:00
10:53 AM,75.9,51.1,42,30.03,10.0,ENE,4.6,-,0.00,,Clear,60,2012-09-01 16:53:00
11:53 AM,80.1,51.1,36,30.02,10.0,NNW,4.6,-,N/A,,Clear,330,2012-09-01 17:53:00
12:53 PM,82.9,48.0,29,29.99,10.0,NNW,6.9,-,N/A,,Clear,340,2012-09-01 18:53:00
2:53 PM,84.9,46.0,26,29.92,10.0,North,4.6,-,0.00,,Clear,350,2012-09-01 20:53:00
3:53 PM,87.1,45.0,23,29.89,10.0,NNW,8.1,-,N/A,,Clear,330,2012-09-01 21:53:00
4:53 PM,86.0,43.0,22,29.89,10.0,WSW,5.8,-,N/A,,Clear,250,2012-09-01 22:53:00
5:53 PM,84.9,43.0,23,29.88,10.0,WSW,13.8,-,N/A,,Clear,240,2012-09-01 23:53:00
6:53 PM,82.9,39.9,22,29.90,10.0,SW,10.4,-,N/A,,Clear,230,2012-09-02 00:53:00
7:53 PM,80.1,41.0,25,29.92,10.0,WSW,5.8,-,N/A,,Clear,240,2012-09-02 01:53:00
8:53 PM,75.9,45.0,33,29.99,8.0,SW,25.3,38.0,N/A,,Partly Cloudy,220,2012-09-02 02:53:00
9:16 PM,73.4,46.4,38,30.22,5.0,SW,27.6,47.2,0.00,Rain,Light Rain,230,2012-09-02 03:16:00
9:28 PM,69.8,50.0,49,30.28,8.0,WSW,20.7,44.9,0.00,Rain-Thunderstorm,Light Thunderstorms and Rain,240,2012-09-02 03:28:00
9:49 PM,69.8,50.0,49,30.30,10.0,SSW,12.7,-,0.00,Rain,Light Rain,210,2012-09-02 03:49:00
9:53 PM,70.0,50.0,49,30.07,10.0,SSW,17.3,21.9,0.00,,Overcast,210,2012-09-02 03:53:00
10:53 PM,68.0,50.0,52,30.02,10.0,SSE,19.6,-,N/A,,Clear,150,2012-09-02 04:53:00
11:53 PM,68.0,48.9,50,29.99,10.0,SSE,11.5,-,N/A,,Clear,160,2012-09-02 05:53:00